User: anonymous   Login
Location: Unspecified
(0.0000°N, 0.0000°E)
Time: 14:58:46
(UTC+00:00)
Language:

Mayak - Orbit

View from above orbital plane
View from above orbital plane
View from above satellite
View from above satellite

Ground track
Ground track

The orbit data is extracted from the following two-line orbital elements,

1 42830U 17042F   20221.19537736  .00000389  00000-0  43256-4 0  9993
2 42830  97.5212 102.1078 0015732 103.9790 256.3180 14.92287008167078
Epoch (UTC): 08 August 2020 04:41:20
Eccentricity: 0.0015732
inclination: 97.5212°
perigee height: 580 km
apogee height: 602 km
right ascension of ascending node: 102.1078°
argument of perigee: 103.9790°
revolutions per day: 14.92287008
mean anomaly at epoch: 256.3180°
orbit number at epoch: 16707

The dashed part of the orbit path shows where the satellite is in the earth's shadow,  

DLR